Year,Month,Day,Hour,Minute,Value (Times are PST for temperature in C)
2014,09,12,00,00,12.70
2014,09,12,00,01,12.60
2014,09,12,00,02,12.60
2014,09,12,00,03,12.60
2014,09,12,00,04,12.50
2014,09,12,00,05,12.50
2014,09,12,00,06,12.40
2014,09,12,00,07,12.30
2014,09,12,00,08,12.30
2014,09,12,00,09,12.20
2014,09,12,00,10,12.20
2014,09,12,00,11,12.10
2014,09,12,00,12,12.10
2014,09,12,00,13,12.00
2014,09,12,00,14,12.00
2014,09,12,00,15,11.90
2014,09,12,00,16,11.90
2014,09,12,00,17,11.90
2014,09,12,00,18,11.80
2014,09,12,00,19,11.80
2014,09,12,00,20,11.80
2014,09,12,00,21,11.70
2014,09,12,00,22,11.70
2014,09,12,00,23,11.70
2014,09,12,00,24,11.70
2014,09,12,00,25,11.70
2014,09,12,00,26,11.60
2014,09,12,00,27,11.60
2014,09,12,00,28,11.60
2014,09,12,00,29,11.60
2014,09,12,00,30,11.60
2014,09,12,00,31,11.60
2014,09,12,00,32,11.60
2014,09,12,00,33,11.70
2014,09,12,00,34,11.70
2014,09,12,00,35,11.70
2014,09,12,00,36,11.80
2014,09,12,00,37,11.80
2014,09,12,00,38,11.80
2014,09,12,00,39,11.80
2014,09,12,00,40,11.80
2014,09,12,00,41,11.80
2014,09,12,00,42,11.80
2014,09,12,00,43,11.80
2014,09,12,00,44,11.80
2014,09,12,00,45,11.80
2014,09,12,00,46,11.70
2014,09,12,00,47,11.70
2014,09,12,00,48,11.70
2014,09,12,00,49,11.70
2014,09,12,00,50,11.70
2014,09,12,00,51,11.60
2014,09,12,00,52,11.60
2014,09,12,00,53,11.60
2014,09,12,00,54,11.50
2014,09,12,00,55,11.50
2014,09,12,00,56,11.50
2014,09,12,00,57,11.40
2014,09,12,00,58,11.40
2014,09,12,00,59,11.30
2014,09,12,01,00,11.30
2014,09,12,01,01,11.30
2014,09,12,01,02,11.20
2014,09,12,01,03,11.20
2014,09,12,01,04,11.20
2014,09,12,01,05,11.10
2014,09,12,01,06,11.10
2014,09,12,01,07,11.10
2014,09,12,01,08,11.00
2014,09,12,01,09,11.00
2014,09,12,01,10,10.90
2014,09,12,01,11,10.90
2014,09,12,01,12,10.90
2014,09,12,01,13,10.90
2014,09,12,01,14,10.80
2014,09,12,01,15,10.80
2014,09,12,01,16,10.80
2014,09,12,01,17,10.70
2014,09,12,01,18,10.70
2014,09,12,01,19,10.70
2014,09,12,01,20,10.60
2014,09,12,01,21,10.60
2014,09,12,01,22,10.60
2014,09,12,01,23,10.60
2014,09,12,01,24,10.60
2014,09,12,01,25,10.50
2014,09,12,01,26,10.50
2014,09,12,01,27,10.50
2014,09,12,01,28,10.50
2014,09,12,01,29,10.40
2014,09,12,01,30,10.40
2014,09,12,01,31,10.40
2014,09,12,01,32,10.40
2014,09,12,01,33,10.40
2014,09,12,01,34,10.30
2014,09,12,01,35,10.30
2014,09,12,01,36,10.30
2014,09,12,01,37,10.30
2014,09,12,01,38,10.30
2014,09,12,01,39,10.20
2014,09,12,01,40,10.20
2014,09,12,01,41,10.20
2014,09,12,01,42,10.20
2014,09,12,01,43,10.20
2014,09,12,01,44,10.20
2014,09,12,01,45,10.10
2014,09,12,01,46,10.10
2014,09,12,01,47,10.10
2014,09,12,01,48,10.10
2014,09,12,01,49,10.10
2014,09,12,01,50,10.10
2014,09,12,01,51,10.10
2014,09,12,01,52,10.10
2014,09,12,01,53,10.10
2014,09,12,01,54,10.10
2014,09,12,01,55,10.10
2014,09,12,01,56,10.10
2014,09,12,01,57,10.10
2014,09,12,01,58,10.10
2014,09,12,01,59,10.10
2014,09,12,02,00,10.00
2014,09,12,02,01,10.00
2014,09,12,02,02,10.00
2014,09,12,02,03,10.00
2014,09,12,02,04,9.90
2014,09,12,02,05,9.90
2014,09,12,02,06,9.90
2014,09,12,02,07,9.90
2014,09,12,02,08,9.90
2014,09,12,02,09,9.90
2014,09,12,02,10,9.90
2014,09,12,02,11,9.90
2014,09,12,02,12,9.90
2014,09,12,02,13,9.90
2014,09,12,02,14,9.90
2014,09,12,02,15,9.80
2014,09,12,02,16,9.80
2014,09,12,02,17,9.80
2014,09,12,02,18,9.80
2014,09,12,02,19,9.80
2014,09,12,02,20,9.80
2014,09,12,02,21,9.80
2014,09,12,02,22,9.80
2014,09,12,02,23,9.80
2014,09,12,02,24,9.80
2014,09,12,02,25,9.80
2014,09,12,02,26,9.80
2014,09,12,02,27,9.80
2014,09,12,02,28,9.70
2014,09,12,02,29,9.80
2014,09,12,02,30,9.70
2014,09,12,02,31,9.70
2014,09,12,02,32,9.70
2014,09,12,02,33,9.70
2014,09,12,02,34,9.70
2014,09,12,02,35,9.70
2014,09,12,02,36,9.60
2014,09,12,02,37,9.60
2014,09,12,02,38,9.60
2014,09,12,02,39,9.60
2014,09,12,02,40,9.50
2014,09,12,02,41,9.50
2014,09,12,02,42,9.50
2014,09,12,02,43,9.40
2014,09,12,02,44,9.40
2014,09,12,02,45,9.40
2014,09,12,02,46,9.40
2014,09,12,02,47,9.40
2014,09,12,02,48,9.30
2014,09,12,02,49,9.30
2014,09,12,02,50,9.30
2014,09,12,02,51,9.30
2014,09,12,02,52,9.30
2014,09,12,02,53,9.20
2014,09,12,02,54,9.20
2014,09,12,02,55,9.20
2014,09,12,02,56,9.20
2014,09,12,02,57,9.20
2014,09,12,02,58,9.20
2014,09,12,02,59,9.20
2014,09,12,03,00,9.20
2014,09,12,03,01,9.10
2014,09,12,03,02,9.10
2014,09,12,03,03,9.10
2014,09,12,03,04,9.10
2014,09,12,03,05,9.10
2014,09,12,03,06,9.10
2014,09,12,03,07,9.10
2014,09,12,03,08,9.10
2014,09,12,03,09,9.10
2014,09,12,03,10,9.10
2014,09,12,03,11,9.10
2014,09,12,03,12,9.10
2014,09,12,03,13,9.10
2014,09,12,03,14,9.10
2014,09,12,03,15,9.00
2014,09,12,03,16,9.00
2014,09,12,03,17,9.00
2014,09,12,03,18,9.00
2014,09,12,03,19,9.00
2014,09,12,03,20,8.90
2014,09,12,03,21,8.90
2014,09,12,03,22,8.90
2014,09,12,03,23,8.90
2014,09,12,03,24,8.90
2014,09,12,03,25,8.90
2014,09,12,03,26,8.90
2014,09,12,03,27,8.90
2014,09,12,03,28,8.80
2014,09,12,03,29,8.80
2014,09,12,03,30,8.80
2014,09,12,03,31,8.80
2014,09,12,03,32,8.80
2014,09,12,03,33,8.80
2014,09,12,03,34,8.80
2014,09,12,03,35,8.80
2014,09,12,03,36,8.80
2014,09,12,03,37,8.80
2014,09,12,03,38,8.80
2014,09,12,03,39,8.80
2014,09,12,03,40,8.80
2014,09,12,03,41,8.80
2014,09,12,03,42,8.80
2014,09,12,03,43,8.80
2014,09,12,03,44,8.80
2014,09,12,03,45,8.80
2014,09,12,03,46,8.80
2014,09,12,03,47,8.80
2014,09,12,03,48,8.80
2014,09,12,03,49,8.80
2014,09,12,03,50,8.80
2014,09,12,03,51,8.80
2014,09,12,03,52,8.80
2014,09,12,03,53,8.80
2014,09,12,03,54,8.70
2014,09,12,03,55,8.70
2014,09,12,03,56,8.70
2014,09,12,03,57,8.70
2014,09,12,03,58,8.60
2014,09,12,03,59,8.60
2014,09,12,04,00,8.60
2014,09,12,04,01,8.60
2014,09,12,04,02,8.60
2014,09,12,04,03,8.50
2014,09,12,04,04,8.50
2014,09,12,04,05,8.50
2014,09,12,04,06,8.50
2014,09,12,04,07,8.50
2014,09,12,04,08,8.50
2014,09,12,04,09,8.50
2014,09,12,04,10,8.50
2014,09,12,04,11,8.50
2014,09,12,04,12,8.60
2014,09,12,04,13,8.60
2014,09,12,04,14,8.60
2014,09,12,04,15,8.60
2014,09,12,04,16,8.70
2014,09,12,04,17,8.70
2014,09,12,04,18,8.80
2014,09,12,04,19,8.80
2014,09,12,04,20,8.80
2014,09,12,04,21,8.90
2014,09,12,04,22,9.00
2014,09,12,04,23,9.00
2014,09,12,04,24,9.10
2014,09,12,04,25,9.10
2014,09,12,04,26,9.20
2014,09,12,04,27,9.20
2014,09,12,04,28,9.20
2014,09,12,04,29,9.20
2014,09,12,04,30,9.30
2014,09,12,04,31,9.30
2014,09,12,04,32,9.40
2014,09,12,04,33,9.40
2014,09,12,04,34,9.50
2014,09,12,04,35,9.60
2014,09,12,04,36,9.60
2014,09,12,04,37,9.70
2014,09,12,04,38,9.70
2014,09,12,04,39,9.80
2014,09,12,04,40,9.90
2014,09,12,04,41,10.00
2014,09,12,04,42,10.10
2014,09,12,04,43,10.10
2014,09,12,04,44,10.20
2014,09,12,04,45,10.30
2014,09,12,04,46,10.40
2014,09,12,04,47,10.40
2014,09,12,04,48,10.50
2014,09,12,04,49,10.60
2014,09,12,04,50,10.60
2014,09,12,04,51,10.70
2014,09,12,04,52,10.70
2014,09,12,04,53,10.80
2014,09,12,04,54,10.80
2014,09,12,04,55,10.90
2014,09,12,04,56,10.90
2014,09,12,04,57,10.90
2014,09,12,04,58,11.00
2014,09,12,04,59,11.00
2014,09,12,05,00,11.10
2014,09,12,05,01,11.10
2014,09,12,05,02,11.10
2014,09,12,05,03,11.20
2014,09,12,05,04,11.20
2014,09,12,05,05,11.20
2014,09,12,05,06,11.20
2014,09,12,05,07,11.20
2014,09,12,05,08,11.20
2014,09,12,05,09,11.20
2014,09,12,05,10,11.20
2014,09,12,05,11,11.20
2014,09,12,05,12,11.20
2014,09,12,05,13,11.20
2014,09,12,05,14,11.20
2014,09,12,05,15,11.20
2014,09,12,05,16,11.20
2014,09,12,05,17,11.20
2014,09,12,05,18,11.10
2014,09,12,05,19,11.10
2014,09,12,05,20,11.10
2014,09,12,05,21,11.10
2014,09,12,05,22,11.10
2014,09,12,05,23,11.00
2014,09,12,05,24,11.00
2014,09,12,05,25,11.00
2014,09,12,05,26,10.90
2014,09,12,05,27,10.90
2014,09,12,05,28,10.90
2014,09,12,05,29,10.90
2014,09,12,05,30,10.80
2014,09,12,05,31,10.80
2014,09,12,05,32,10.80
2014,09,12,05,33,10.80
2014,09,12,05,34,10.70
2014,09,12,05,35,10.70
2014,09,12,05,36,10.70
2014,09,12,05,37,10.70
2014,09,12,05,38,10.70
2014,09,12,05,39,10.70
2014,09,12,05,40,10.70
2014,09,12,05,41,10.70
2014,09,12,05,42,10.70
2014,09,12,05,43,10.70
2014,09,12,05,44,10.70
2014,09,12,05,45,10.80
2014,09,12,05,46,10.80
2014,09,12,05,47,10.80
2014,09,12,05,48,10.80
2014,09,12,05,49,10.80
2014,09,12,05,50,10.80
2014,09,12,05,51,10.80
2014,09,12,05,52,10.80
2014,09,12,05,53,10.80
2014,09,12,05,54,10.70
2014,09,12,05,55,10.80
2014,09,12,05,56,10.80
2014,09,12,05,57,10.80
2014,09,12,05,58,10.80
2014,09,12,05,59,10.90
2014,09,12,06,00,10.90
2014,09,12,06,01,10.90
2014,09,12,06,02,10.90
2014,09,12,06,03,11.00
2014,09,12,06,04,11.00
2014,09,12,06,05,11.00
2014,09,12,06,06,11.10
2014,09,12,06,07,11.10
2014,09,12,06,08,11.10
2014,09,12,06,09,11.10
2014,09,12,06,10,11.10
2014,09,12,06,11,11.20
2014,09,12,06,12,11.20
2014,09,12,06,13,11.20
2014,09,12,06,14,11.10
2014,09,12,06,15,11.10
2014,09,12,06,16,11.10
2014,09,12,06,17,11.20
2014,09,12,06,18,11.20
2014,09,12,06,19,11.20
2014,09,12,06,20,11.20
2014,09,12,06,21,11.20
2014,09,12,06,22,11.20
2014,09,12,06,23,11.20
2014,09,12,06,24,11.30
2014,09,12,06,25,11.30
2014,09,12,06,26,11.30
2014,09,12,06,27,11.30
2014,09,12,06,28,11.20
2014,09,12,06,29,11.20
2014,09,12,06,30,11.20
2014,09,12,06,31,11.20
2014,09,12,06,32,11.20
2014,09,12,06,33,11.20
2014,09,12,06,34,11.10
2014,09,12,06,35,11.10
2014,09,12,06,36,11.20
2014,09,12,06,37,11.20
2014,09,12,06,38,11.20
2014,09,12,06,39,11.20
2014,09,12,06,40,11.20
2014,09,12,06,41,11.10
2014,09,12,06,42,11.10
2014,09,12,06,43,11.00
2014,09,12,06,44,10.90
2014,09,12,06,45,10.90
2014,09,12,06,46,10.80
2014,09,12,06,47,10.70
2014,09,12,06,48,10.70
2014,09,12,06,49,10.60
2014,09,12,06,50,10.60
2014,09,12,06,51,10.60
2014,09,12,06,52,10.60
2014,09,12,06,53,10.60
2014,09,12,06,54,10.60
2014,09,12,06,55,10.60
2014,09,12,06,56,10.60
2014,09,12,06,57,10.60
2014,09,12,06,58,10.60
2014,09,12,06,59,10.60
2014,09,12,07,00,10.60
2014,09,12,07,01,10.60
2014,09,12,07,02,10.60
2014,09,12,07,03,10.60
2014,09,12,07,04,10.60
2014,09,12,07,05,10.60
2014,09,12,07,06,10.60
2014,09,12,07,07,10.60
2014,09,12,07,08,10.60
2014,09,12,07,09,10.70
2014,09,12,07,10,10.70
2014,09,12,07,11,10.80
2014,09,12,07,12,10.80
2014,09,12,07,13,10.80
2014,09,12,07,14,10.80
2014,09,12,07,15,10.90
2014,09,12,07,16,10.90
2014,09,12,07,17,10.90
2014,09,12,07,18,11.00
2014,09,12,07,19,11.00
2014,09,12,07,20,11.10
2014,09,12,07,21,11.10
2014,09,12,07,22,11.20
2014,09,12,07,23,11.20
2014,09,12,07,24,11.30
2014,09,12,07,25,11.40
2014,09,12,07,26,11.40
2014,09,12,07,27,11.50
2014,09,12,07,28,11.60
2014,09,12,07,29,11.70
2014,09,12,07,30,11.70
2014,09,12,07,31,11.80
2014,09,12,07,32,11.80
2014,09,12,07,33,11.90
2014,09,12,07,34,12.00
2014,09,12,07,35,12.00
2014,09,12,07,36,12.10
2014,09,12,07,37,12.20
2014,09,12,07,38,12.20
2014,09,12,07,39,12.30
2014,09,12,07,40,12.30
2014,09,12,07,41,12.40
2014,09,12,07,42,12.40
2014,09,12,07,43,12.50
2014,09,12,07,44,12.50
2014,09,12,07,45,12.60
2014,09,12,07,46,12.70
2014,09,12,07,47,12.70
2014,09,12,07,48,12.80
2014,09,12,07,49,12.80
2014,09,12,07,50,12.80
2014,09,12,07,51,12.90
2014,09,12,07,52,12.90
2014,09,12,07,53,13.00
2014,09,12,07,54,13.10
2014,09,12,07,55,13.10
2014,09,12,07,56,13.10
2014,09,12,07,57,13.10
2014,09,12,07,58,13.20
2014,09,12,07,59,13.20
2014,09,12,08,00,13.20
2014,09,12,08,01,13.30
2014,09,12,08,02,13.30
2014,09,12,08,03,13.30
2014,09,12,08,04,13.40
2014,09,12,08,05,13.40
2014,09,12,08,06,13.40
2014,09,12,08,07,13.40
2014,09,12,08,08,13.50
2014,09,12,08,09,13.50
2014,09,12,08,10,13.60
2014,09,12,08,11,13.60
2014,09,12,08,12,13.60
2014,09,12,08,13,13.60
2014,09,12,08,14,13.60
2014,09,12,08,15,13.70
2014,09,12,08,16,13.70
2014,09,12,08,17,13.70
2014,09,12,08,18,13.70
2014,09,12,08,19,13.80
2014,09,12,08,20,13.80
2014,09,12,08,21,13.80
2014,09,12,08,22,13.90
2014,09,12,08,23,13.90
2014,09,12,08,24,14.00
2014,09,12,08,25,14.00
2014,09,12,08,26,14.10
2014,09,12,08,27,14.10
2014,09,12,08,28,14.20
2014,09,12,08,29,14.20
2014,09,12,08,30,14.20
2014,09,12,08,31,14.20
2014,09,12,08,32,14.20
2014,09,12,08,33,14.30
2014,09,12,08,34,14.30
2014,09,12,08,35,14.40
2014,09,12,08,36,14.30
2014,09,12,08,37,14.30
2014,09,12,08,38,14.30
2014,09,12,08,39,14.30
2014,09,12,08,40,14.30
2014,09,12,08,41,14.20
2014,09,12,08,42,14.30
2014,09,12,08,43,14.30
2014,09,12,08,44,14.30
2014,09,12,08,45,14.40
2014,09,12,08,46,14.40
2014,09,12,08,47,14.50
2014,09,12,08,48,14.50
2014,09,12,08,49,14.50
2014,09,12,08,50,14.50
2014,09,12,08,51,14.50
2014,09,12,08,52,14.50
2014,09,12,08,53,14.50
2014,09,12,08,54,14.60
2014,09,12,08,55,14.60
2014,09,12,08,56,14.60
2014,09,12,08,57,14.60
2014,09,12,08,58,14.60
2014,09,12,08,59,14.70
2014,09,12,09,00,14.70
2014,09,12,09,01,14.80
2014,09,12,09,02,14.80
2014,09,12,09,03,14.70
2014,09,12,09,04,14.70
2014,09,12,09,05,14.70
2014,09,12,09,06,14.70
2014,09,12,09,07,14.70
2014,09,12,09,08,14.70
2014,09,12,09,09,14.70
2014,09,12,09,10,14.70
2014,09,12,09,11,14.80
2014,09,12,09,12,14.80
2014,09,12,09,13,14.80
2014,09,12,09,14,14.80
2014,09,12,09,15,14.80
2014,09,12,09,16,14.80
2014,09,12,09,17,14.80
2014,09,12,09,18,14.80
2014,09,12,09,19,14.80
2014,09,12,09,20,14.80
2014,09,12,09,21,14.80
2014,09,12,09,22,14.80
2014,09,12,09,23,14.80
2014,09,12,09,24,14.80
2014,09,12,09,25,14.80
2014,09,12,09,26,14.90
2014,09,12,09,27,14.90
2014,09,12,09,28,15.00
2014,09,12,09,29,15.10
2014,09,12,09,30,15.20
2014,09,12,09,31,15.20
2014,09,12,09,32,15.30
2014,09,12,09,33,15.30
2014,09,12,09,34,15.30
2014,09,12,09,35,15.40
2014,09,12,09,36,15.50
2014,09,12,09,37,15.50
2014,09,12,09,38,15.60
2014,09,12,09,39,15.60
2014,09,12,09,40,15.70
2014,09,12,09,41,15.70
2014,09,12,09,42,15.70
2014,09,12,09,43,15.80
2014,09,12,09,44,15.90
2014,09,12,09,45,15.90
2014,09,12,09,46,15.90
2014,09,12,09,47,15.90
2014,09,12,09,48,15.90
2014,09,12,09,49,15.80
2014,09,12,09,50,15.80
2014,09,12,09,51,15.80
2014,09,12,09,52,15.90
2014,09,12,09,53,15.90
2014,09,12,09,54,15.90
2014,09,12,09,55,15.90
2014,09,12,09,56,15.90
2014,09,12,09,57,15.80
2014,09,12,09,58,15.80
2014,09,12,09,59,15.90
2014,09,12,10,00,15.90
2014,09,12,10,01,16.00
2014,09,12,10,02,16.00
2014,09,12,10,03,16.10
2014,09,12,10,04,16.10
2014,09,12,10,05,16.10
2014,09,12,10,06,16.20
2014,09,12,10,07,16.20
2014,09,12,10,08,16.30
2014,09,12,10,09,16.30
2014,09,12,10,10,16.40
2014,09,12,10,11,16.40
2014,09,12,10,12,16.50
2014,09,12,10,13,16.50
2014,09,12,10,14,16.50
2014,09,12,10,15,16.50
2014,09,12,10,16,16.60
2014,09,12,10,17,16.60
2014,09,12,10,18,16.60
2014,09,12,10,19,16.70
2014,09,12,10,20,16.80
2014,09,12,10,21,16.80
2014,09,12,10,22,16.70
2014,09,12,10,23,16.70
2014,09,12,10,24,16.80
2014,09,12,10,25,16.90
2014,09,12,10,26,16.90
2014,09,12,10,27,17.00
2014,09,12,10,28,17.00
2014,09,12,10,29,17.10
2014,09,12,10,30,17.10
2014,09,12,10,31,17.20
2014,09,12,10,32,17.20
2014,09,12,10,33,17.20
2014,09,12,10,34,17.20
2014,09,12,10,35,17.10
2014,09,12,10,36,17.10
2014,09,12,10,37,17.00
2014,09,12,10,38,16.90
2014,09,12,10,39,17.00
2014,09,12,10,40,17.00
2014,09,12,10,41,17.10
2014,09,12,10,42,17.10
2014,09,12,10,43,17.10
2014,09,12,10,44,17.00
2014,09,12,10,45,17.00
2014,09,12,10,46,17.00
2014,09,12,10,47,17.00
2014,09,12,10,48,17.10
2014,09,12,10,49,17.10
2014,09,12,10,50,17.10
2014,09,12,10,51,17.10
2014,09,12,10,52,17.10
2014,09,12,10,53,17.20
2014,09,12,10,54,17.20
2014,09,12,10,55,17.10
2014,09,12,10,56,17.10
2014,09,12,10,57,17.00
2014,09,12,10,58,17.00
2014,09,12,10,59,17.10
2014,09,12,11,00,17.10
2014,09,12,11,01,17.20
2014,09,12,11,02,17.30
2014,09,12,11,03,17.30
2014,09,12,11,04,17.40
2014,09,12,11,05,17.40
2014,09,12,11,06,17.50
2014,09,12,11,07,17.60
2014,09,12,11,08,17.70
2014,09,12,11,09,17.80
2014,09,12,11,10,17.80
2014,09,12,11,11,17.80
2014,09,12,11,12,17.90
2014,09,12,11,13,17.90
2014,09,12,11,14,17.90
2014,09,12,11,15,18.00
2014,09,12,11,16,18.00
2014,09,12,11,17,18.00
2014,09,12,11,18,18.10
2014,09,12,11,19,18.10
2014,09,12,11,20,18.10
2014,09,12,11,21,18.20
2014,09,12,11,22,18.30
2014,09,12,11,23,18.40
2014,09,12,11,24,18.50
2014,09,12,11,25,18.50
2014,09,12,11,26,18.50
2014,09,12,11,27,18.50
2014,09,12,11,28,18.60
2014,09,12,11,29,18.60
2014,09,12,11,30,18.60
2014,09,12,11,31,18.60
2014,09,12,11,32,18.60
2014,09,12,11,33,18.60
2014,09,12,11,34,18.50
2014,09,12,11,35,18.50
2014,09,12,11,36,18.40
2014,09,12,11,37,18.50
2014,09,12,11,38,18.50
2014,09,12,11,39,18.60
2014,09,12,11,40,18.70
2014,09,12,11,41,18.80
2014,09,12,11,42,18.80
2014,09,12,11,43,18.80
2014,09,12,11,44,18.80
2014,09,12,11,45,18.80
2014,09,12,11,46,18.70
2014,09,12,11,47,18.80
2014,09,12,11,48,18.80
2014,09,12,11,49,18.80
2014,09,12,11,50,18.80
2014,09,12,11,51,18.80
2014,09,12,11,52,18.80
2014,09,12,11,53,18.80
2014,09,12,11,54,18.80
2014,09,12,11,55,18.80
2014,09,12,11,56,18.80
2014,09,12,11,57,18.90
2014,09,12,11,58,18.90
2014,09,12,11,59,19.00
2014,09,12,12,00,19.00
2014,09,12,12,01,19.10
2014,09,12,12,02,19.10
2014,09,12,12,03,19.10
2014,09,12,12,04,19.20
2014,09,12,12,05,19.20
2014,09,12,12,06,19.30
2014,09,12,12,07,19.30
2014,09,12,12,08,19.40
2014,09,12,12,09,19.50
2014,09,12,12,10,19.50
2014,09,12,12,11,19.50
2014,09,12,12,12,19.50
2014,09,12,12,13,19.50
2014,09,12,12,14,19.40
2014,09,12,12,15,19.40
2014,09,12,12,16,19.40
2014,09,12,12,17,19.50
2014,09,12,12,18,19.50
2014,09,12,12,19,19.60
2014,09,12,12,20,19.60
2014,09,12,12,21,19.70
2014,09,12,12,22,19.80
2014,09,12,12,23,19.80
2014,09,12,12,24,19.90
2014,09,12,12,25,19.90
2014,09,12,12,26,20.00
2014,09,12,12,27,20.00
2014,09,12,12,28,20.10
2014,09,12,12,29,20.10
2014,09,12,12,30,20.20
2014,09,12,12,31,20.10
2014,09,12,12,32,20.10
2014,09,12,12,33,20.10
2014,09,12,12,34,20.10
2014,09,12,12,35,20.20
2014,09,12,12,36,20.20
2014,09,12,12,37,20.20
2014,09,12,12,38,20.30
2014,09,12,12,39,20.30
2014,09,12,12,40,20.30
2014,09,12,12,41,20.30
2014,09,12,12,42,20.30
2014,09,12,12,43,20.30
2014,09,12,12,44,20.30
2014,09,12,12,45,20.30
2014,09,12,12,46,20.20
2014,09,12,12,47,20.20
2014,09,12,12,48,20.30
2014,09,12,12,49,20.30
2014,09,12,12,50,20.30
2014,09,12,12,51,20.20
2014,09,12,12,52,20.10
2014,09,12,12,53,20.10
2014,09,12,12,54,20.10
2014,09,12,12,55,20.10
2014,09,12,12,56,20.10
2014,09,12,12,57,20.00
2014,09,12,12,58,20.10
2014,09,12,12,59,20.10
2014,09,12,13,00,20.20
2014,09,12,13,01,20.20
2014,09,12,13,02,20.20
2014,09,12,13,03,20.30
2014,09,12,13,04,20.30
2014,09,12,13,05,20.30
2014,09,12,13,06,20.30
2014,09,12,13,07,20.20
2014,09,12,13,08,20.20
2014,09,12,13,09,20.20
2014,09,12,13,10,20.20
2014,09,12,13,11,20.20
2014,09,12,13,12,20.30
2014,09,12,13,13,20.40
2014,09,12,13,14,20.30
2014,09,12,13,15,20.30
2014,09,12,13,16,20.20
2014,09,12,13,17,20.20
2014,09,12,13,18,20.20
2014,09,12,13,19,20.20
2014,09,12,13,20,20.30
2014,09,12,13,21,20.30
2014,09,12,13,22,20.30
2014,09,12,13,23,20.30
2014,09,12,13,24,20.30
2014,09,12,13,25,20.30
2014,09,12,13,26,20.30
2014,09,12,13,27,20.40
2014,09,12,13,28,20.50
2014,09,12,13,29,20.60
2014,09,12,13,30,20.80
2014,09,12,13,31,20.80
2014,09,12,13,32,20.90
2014,09,12,13,33,20.90
2014,09,12,13,34,20.90
2014,09,12,13,35,20.90
2014,09,12,13,36,20.80
2014,09,12,13,37,20.80
2014,09,12,13,38,20.80
2014,09,12,13,39,20.90
2014,09,12,13,40,20.90
2014,09,12,13,41,21.00
2014,09,12,13,42,21.10
2014,09,12,13,43,21.10
2014,09,12,13,44,21.10
2014,09,12,13,45,21.10
2014,09,12,13,46,21.00
2014,09,12,13,47,21.00
2014,09,12,13,48,21.10
2014,09,12,13,49,21.10
2014,09,12,13,50,21.00
2014,09,12,13,51,20.90
2014,09,12,13,52,20.80
2014,09,12,13,53,20.80
2014,09,12,13,54,20.90
2014,09,12,13,55,20.90
2014,09,12,13,56,21.00
2014,09,12,13,57,20.90
2014,09,12,13,58,20.90
2014,09,12,13,59,20.90
2014,09,12,14,00,20.90
2014,09,12,14,01,20.80
2014,09,12,14,02,20.80
2014,09,12,14,03,20.80
2014,09,12,14,04,20.70
2014,09,12,14,05,20.70
2014,09,12,14,06,20.80
2014,09,12,14,07,20.80
2014,09,12,14,08,20.80
2014,09,12,14,09,20.80
2014,09,12,14,10,20.80
2014,09,12,14,11,20.80
2014,09,12,14,12,20.80
2014,09,12,14,13,20.90
2014,09,12,14,14,20.90
2014,09,12,14,15,21.00
2014,09,12,14,16,21.10
2014,09,12,14,17,21.10
2014,09,12,14,18,21.10
2014,09,12,14,19,21.10
2014,09,12,14,20,21.00
2014,09,12,14,21,21.00
2014,09,12,14,22,20.90
2014,09,12,14,23,20.90
2014,09,12,14,24,20.80
2014,09,12,14,25,20.80
2014,09,12,14,26,20.80
2014,09,12,14,27,20.80
2014,09,12,14,28,20.80
2014,09,12,14,29,20.80
2014,09,12,14,30,20.80
2014,09,12,14,31,20.80
2014,09,12,14,32,20.80
2014,09,12,14,33,20.80
2014,09,12,14,34,20.80
2014,09,12,14,35,20.90
2014,09,12,14,36,21.00
2014,09,12,14,37,21.10
2014,09,12,14,38,21.00
2014,09,12,14,39,21.00
2014,09,12,14,40,21.00
2014,09,12,14,41,20.90
2014,09,12,14,42,20.90
2014,09,12,14,43,20.90
2014,09,12,14,44,21.00
2014,09,12,14,45,21.10
2014,09,12,14,46,21.00
2014,09,12,14,47,21.00
2014,09,12,14,48,21.00
2014,09,12,14,49,21.00
2014,09,12,14,50,21.10
2014,09,12,14,51,21.10
2014,09,12,14,52,21.10
2014,09,12,14,53,21.10
2014,09,12,14,54,21.10
2014,09,12,14,55,21.00
2014,09,12,14,56,20.90
2014,09,12,14,57,20.90
2014,09,12,14,58,20.90
2014,09,12,14,59,20.90
2014,09,12,15,00,20.80
2014,09,12,15,01,20.80
2014,09,12,15,02,20.70
2014,09,12,15,03,20.70
2014,09,12,15,04,20.80
2014,09,12,15,05,20.70
2014,09,12,15,06,20.80
2014,09,12,15,07,20.80
2014,09,12,15,08,20.90
2014,09,12,15,09,20.90
2014,09,12,15,10,20.90
2014,09,12,15,11,21.00
2014,09,12,15,12,21.00
2014,09,12,15,13,21.10
2014,09,12,15,14,21.10
2014,09,12,15,15,21.00
2014,09,12,15,16,21.00
2014,09,12,15,17,21.10
2014,09,12,15,18,21.20
2014,09,12,15,19,21.20
2014,09,12,15,20,21.30
2014,09,12,15,21,21.30
2014,09,12,15,22,21.30
2014,09,12,15,23,21.30
2014,09,12,15,24,21.30
2014,09,12,15,25,21.20
2014,09,12,15,26,21.20
2014,09,12,15,27,21.10
2014,09,12,15,28,21.10
2014,09,12,15,29,21.00
2014,09,12,15,30,20.90
2014,09,12,15,31,20.90
2014,09,12,15,32,21.00
2014,09,12,15,33,21.00
2014,09,12,15,34,21.10
2014,09,12,15,35,21.20
2014,09,12,15,36,21.30
2014,09,12,15,37,21.40
2014,09,12,15,38,21.50
2014,09,12,15,39,21.50
2014,09,12,15,40,21.60
2014,09,12,15,41,21.60
2014,09,12,15,42,21.60
2014,09,12,15,43,21.50
2014,09,12,15,44,21.50
2014,09,12,15,45,21.50
2014,09,12,15,46,21.60
2014,09,12,15,47,21.60
2014,09,12,15,48,21.50
2014,09,12,15,49,21.50
2014,09,12,15,50,21.40
2014,09,12,15,51,21.40
2014,09,12,15,52,21.30
2014,09,12,15,53,21.30
2014,09,12,15,54,21.30
2014,09,12,15,55,21.30
2014,09,12,15,56,21.30
2014,09,12,15,57,21.30
2014,09,12,15,58,21.30
2014,09,12,15,59,21.30
2014,09,12,16,00,21.30
2014,09,12,16,01,21.40
2014,09,12,16,02,21.40
2014,09,12,16,03,21.40
2014,09,12,16,04,21.40
2014,09,12,16,05,21.50
2014,09,12,16,06,21.50
2014,09,12,16,07,21.50
2014,09,12,16,08,21.60
2014,09,12,16,09,21.60
2014,09,12,16,10,21.70
2014,09,12,16,11,21.70
2014,09,12,16,12,21.70
2014,09,12,16,13,21.70
2014,09,12,16,14,21.70
2014,09,12,16,15,21.70
2014,09,12,16,16,21.80
2014,09,12,16,17,21.70
2014,09,12,16,18,21.70
2014,09,12,16,19,21.70
2014,09,12,16,20,21.70
2014,09,12,16,21,21.70
2014,09,12,16,22,21.70
2014,09,12,16,23,21.70
2014,09,12,16,24,21.70
2014,09,12,16,25,21.70
2014,09,12,16,26,21.70
2014,09,12,16,27,21.70
2014,09,12,16,28,21.70
2014,09,12,16,29,21.70
2014,09,12,16,30,21.70
2014,09,12,16,31,21.70
2014,09,12,16,32,21.70
2014,09,12,16,33,21.80
2014,09,12,16,34,21.80
2014,09,12,16,35,21.80
2014,09,12,16,36,21.80
2014,09,12,16,37,21.80
2014,09,12,16,38,21.80
2014,09,12,16,39,21.80
2014,09,12,16,40,21.90
2014,09,12,16,41,21.90
2014,09,12,16,42,21.90
2014,09,12,16,43,21.90
2014,09,12,16,44,21.90
2014,09,12,16,45,21.90
2014,09,12,16,46,22.00
2014,09,12,16,47,22.00
2014,09,12,16,48,22.00
2014,09,12,16,49,22.00
2014,09,12,16,50,22.00
2014,09,12,16,51,22.10
2014,09,12,16,52,22.10
2014,09,12,16,53,22.10
2014,09,12,16,54,22.10
2014,09,12,16,55,22.10
2014,09,12,16,56,22.10
2014,09,12,16,57,22.10
2014,09,12,16,58,22.10
2014,09,12,16,59,22.10
2014,09,12,17,00,22.10
2014,09,12,17,01,22.10
2014,09,12,17,02,22.10
2014,09,12,17,03,22.20
2014,09,12,17,04,22.20
2014,09,12,17,05,22.20
2014,09,12,17,06,22.20
2014,09,12,17,07,22.20
2014,09,12,17,08,22.20
2014,09,12,17,09,22.20
2014,09,12,17,10,22.20
2014,09,12,17,11,22.20
2014,09,12,17,12,22.20
2014,09,12,17,13,22.20
2014,09,12,17,14,22.20
2014,09,12,17,15,22.10
2014,09,12,17,16,22.10
2014,09,12,17,17,22.10
2014,09,12,17,18,22.10
2014,09,12,17,19,22.20
2014,09,12,17,20,22.20
2014,09,12,17,21,22.20
2014,09,12,17,22,22.20
2014,09,12,17,23,22.30
2014,09,12,17,24,22.30
2014,09,12,17,25,22.40
2014,09,12,17,26,22.40